• In Österreich
  • Länderverzeichnis
  • Für 7 Tage
  • Wassertemperatur
  • Satellitenkarten
  • Wetterkarte
  • News
  • Widgets
  • user-avatar
    Anmelden

    Stündliche Wetter Istruby

    Heute, 21 August, Dienstag

    Zeit Temperatur Niederschläge Wind Luftdruck Luftfeuchtigkeit
    00:00 +17°C° 0 mm 4 m/S 734 mmHg 87%
    01:00 +17°C° 0 mm 4 m/S 733 mmHg 87%
    02:00 +17°C° 0 mm 4 m/S 733 mmHg 87%
    03:00 +17°C° 0,1 mm 4 m/S 732 mmHg 88%
    04:00 +17°C° 0,1 mm 4 m/S 732 mmHg 89%
    05:00 +17°C° 0,1 mm 4 m/S 731 mmHg 91%
    06:00 +17°C° 0,2 mm 5 m/S 731 mmHg 91%
    07:00 +17°C° 0,2 mm 5 m/S 731 mmHg 91%
    08:00 +17°C° 0,2 mm 5 m/S 731 mmHg 91%
    09:00 +17°C° 0,3 mm 5 m/S 731 mmHg 87%
    10:00 +19°C° 0,3 mm 5 m/S 731 mmHg 83%
    11:00 +19°C° 0,3 mm 6 m/S 732 mmHg 79%
    12:00 +19°C° 0,1 mm 6 m/S 732 mmHg 71%
    13:00 +20°C° 0,1 mm 6 m/S 732 mmHg 63%
    14:00 +20°C° 0,1 mm 6 m/S 732 mmHg 55%
    15:00 +20°C° 0 mm 6 m/S 733 mmHg 56%
    16:00 +19°C° 0 mm 5 m/S 733 mmHg 56%
    17:00 +18°C° 0 mm 4 m/S 733 mmHg 57%
    18:00 +17°C° 0 mm 4 m/S 734 mmHg 61%
    19:00 +14°C° 0 mm 3 m/S 734 mmHg 65%
    20:00 +13°C° 0 mm 3 m/S 734 mmHg 70%
    21:00 +12°C° 0 mm 3 m/S 735 mmHg 73%
    22:00 +11°C° 0 mm 3 m/S 735 mmHg 76%
    23:00 +11°C° 0 mm 3 m/S 735 mmHg 79%

    Morgen, 22 August, Mittwoch

    Zeit Temperatur Niederschläge Wind Luftdruck Luftfeuchtigkeit
    00:00 +10°C° 0 mm 3 m/S 736 mmHg 80%
    01:00 +10°C° 0 mm 3 m/S 736 mmHg 82%
    02:00 +10°C° 0 mm 3 m/S 736 mmHg 83%
    03:00 +9°C° 0 mm 3 m/S 737 mmHg 84%
    04:00 +9°C° 0 mm 3 m/S 737 mmHg 86%
    05:00 +8°C° 0 mm 4 m/S 738 mmHg 87%
    06:00 +10°C° 0 mm 4 m/S 738 mmHg 81%
    07:00 +11°C° 0 mm 4 m/S 739 mmHg 75%
    08:00 +12°C° 0 mm 5 m/S 739 mmHg 70%
    09:00 +14°C° 0 mm 5 m/S 739 mmHg 64%
    10:00 +15°C° 0 mm 5 m/S 740 mmHg 58%
    11:00 +16°C° 0 mm 5 m/S 740 mmHg 52%
    12:00 +16°C° 0 mm 5 m/S 740 mmHg 50%
    13:00 +17°C° 0 mm 5 m/S 741 mmHg 48%
    14:00 +17°C° 0 mm 5 m/S 741 mmHg 46%
    15:00 +18°C° 0 mm 4 m/S 741 mmHg 48%
    16:00 +17°C° 0 mm 4 m/S 741 mmHg 51%
    17:00 +17°C° 0 mm 3 m/S 741 mmHg 54%
    18:00 +14°C° 0 mm 3 m/S 742 mmHg 60%
    19:00 +13°C° 0 mm 2 m/S 742 mmHg 67%
    20:00 +10°C° 0 mm 2 m/S 742 mmHg 73%
    21:00 +10°C° 0 mm 2 m/S 743 mmHg 76%
    22:00 +9°C° 0 mm 2 m/S 743 mmHg 78%
    23:00 +8°C° 0 mm 2 m/S 744 mmHg 80%

    übermorgen, 23 August, Donnerstag

    Zeit Temperatur Niederschläge Wind Luftdruck Luftfeuchtigkeit
    00:00 +8°C° 0 mm 2 m/S 744 mmHg 81%
    01:00 +9°C° 0 mm 1 m/S 744 mmHg 83%
    02:00 +8°C° 0 mm 1 m/S 744 mmHg 84%
    03:00 +8°C° 0 mm 1 m/S 744 mmHg 85%
    04:00 +8°C° 0 mm 1 m/S 744 mmHg 86%
    05:00 +8°C° 0 mm 1 m/S 744 mmHg 87%
    06:00 +10°C° 0 mm 1 m/S 744 mmHg 79%
    07:00 +12°C° 0 mm 1 m/S 744 mmHg 71%
    08:00 +14°C° 0 mm 2 m/S 745 mmHg 64%
    09:00 +16°C° 0 mm 2 m/S 744 mmHg 58%
    10:00 +17°C° 0 mm 2 m/S 744 mmHg 53%
    11:00 +19°C° 0 mm 2 m/S 744 mmHg 47%
    12:00 +19°C° 0 mm 2 m/S 744 mmHg 46%
    13:00 +20°C° 0 mm 2 m/S 744 mmHg 44%
    14:00 +21°C° 0 mm 2 m/S 744 mmHg 43%
    15:00 +20°C° 0 mm 2 m/S 743 mmHg 47%
    16:00 +20°C° 0 mm 2 m/S 743 mmHg 52%
    17:00 +20°C° 0 mm 2 m/S 743 mmHg 56%
    18:00 +17°C° 0 mm 2 m/S 743 mmHg 63%
    19:00 +15°C° 0 mm 2 m/S 743 mmHg 69%
    20:00 +13°C° 0 mm 2 m/S 743 mmHg 75%
    21:00 +12°C° 0 mm 2 m/S 743 mmHg 78%
    22:00 +12°C° 0 mm 2 m/S 743 mmHg 81%
    23:00 +10°C° 0 mm 2 m/S 743 mmHg 84%

    24 August, Freitag

    Zeit Temperatur Niederschläge Wind Luftdruck Luftfeuchtigkeit
    00:00 +10°C° 0 mm 2 m/S 743 mmHg 85%
    01:00 +9°C° 0 mm 2 m/S 743 mmHg 87%
    02:00 +9°C° 0 mm 2 m/S 742 mmHg 89%
    03:00 +9°C° 0 mm 2 m/S 742 mmHg 89%
    04:00 +8°C° 0 mm 2 m/S 742 mmHg 90%
    05:00 +8°C° 0 mm 2 m/S 742 mmHg 91%
    06:00 +10°C° 0 mm 2 m/S 742 mmHg 83%
    07:00 +13°C° 0 mm 2 m/S 742 mmHg 75%
    08:00 +15°C° 0 mm 2 m/S 742 mmHg 68%
    09:00 +17°C° 0 mm 3 m/S 742 mmHg 62%
    10:00 +19°C° 0 mm 3 m/S 741 mmHg 56%
    11:00 +21°C° 0 mm 3 m/S 741 mmHg 51%
    12:00 +21°C° 0 mm 3 m/S 741 mmHg 49%
    13:00 +22°C° 0 mm 3 m/S 741 mmHg 48%
    14:00 +22°C° 0 mm 4 m/S 740 mmHg 47%
    15:00 +22°C° 0 mm 3 m/S 740 mmHg 51%
    16:00 +21°C° 0 mm 3 m/S 740 mmHg 55%
    17:00 +21°C° 0 mm 2 m/S 739 mmHg 60%
    18:00 +19°C° 0 mm 2 m/S 739 mmHg 67%
    19:00 +17°C° 0 mm 2 m/S 739 mmHg 74%
    20:00 +15°C° 0 mm 2 m/S 739 mmHg 81%
    21:00 +14°C° 0 mm 2 m/S 739 mmHg 83%
    22:00 +14°C° 0 mm 2 m/S 739 mmHg 85%
    23:00 +13°C° 0 mm 2 m/S 739 mmHg 87%

    25 August, Samstag

    Zeit Temperatur Niederschläge Wind Luftdruck Luftfeuchtigkeit
    00:00 +13°C° 0 mm 2 m/S 738 mmHg 87%
    01:00 +11°C° 0 mm 3 m/S 738 mmHg 87%
    02:00 +11°C° 0 mm 3 m/S 738 mmHg 87%
    03:00 +11°C° 0 mm 3 m/S 738 mmHg 87%
    04:00 +11°C° 0 mm 3 m/S 738 mmHg 86%
    05:00 +11°C° 0 mm 3 m/S 738 mmHg 86%
    06:00 +12°C° 0 mm 3 m/S 738 mmHg 79%
    07:00 +14°C° 0 mm 3 m/S 738 mmHg 73%
    08:00 +17°C° 0 mm 4 m/S 738 mmHg 67%
    09:00 +19°C° 0 mm 4 m/S 738 mmHg 60%
    10:00 +21°C° 0 mm 4 m/S 738 mmHg 53%
    11:00 +23°C° 0 mm 5 m/S 738 mmHg 46%
    12:00 +25°C° 0 mm 5 m/S 738 mmHg 44%
    13:00 +25°C° 0 mm 5 m/S 737 mmHg 43%
    14:00 +26°C° 0 mm 5 m/S 737 mmHg 41%
    15:00 +25°C° 0 mm 4 m/S 737 mmHg 46%
    16:00 +25°C° 0 mm 4 m/S 737 mmHg 51%
    17:00 +24°C° 0 mm 3 m/S 737 mmHg 55%
    18:00 +21°C° 0 mm 3 m/S 737 mmHg 60%
    19:00 +19°C° 0 mm 3 m/S 737 mmHg 66%
    20:00 +17°C° 0 mm 2 m/S 737 mmHg 71%
    21:00 +17°C° 0 mm 2 m/S 737 mmHg 71%
    22:00 +17°C° 0 mm 2 m/S 737 mmHg 71%
    23:00 +16°C° 0 mm 3 m/S 737 mmHg 72%

    26 August, Sonntag

    Zeit Temperatur Niederschläge Wind Luftdruck Luftfeuchtigkeit
    00:00 +16°C° 0 mm 2 m/S 737 mmHg 73%
    01:00 +15°C° 0 mm 2 m/S 738 mmHg 75%
    02:00 +14°C° 0 mm 2 m/S 738 mmHg 76%
    03:00 +14°C° 0 mm 2 m/S 738 mmHg 78%
    04:00 +13°C° 0 mm 2 m/S 738 mmHg 80%
    05:00 +13°C° 0 mm 2 m/S 738 mmHg 82%
    06:00 +15°C° 0 mm 2 m/S 738 mmHg 76%
    07:00 +16°C° 0 mm 2 m/S 738 mmHg 71%
    08:00 +18°C° 0 mm 3 m/S 739 mmHg 65%
    09:00 +20°C° 0 mm 3 m/S 739 mmHg 60%
    10:00 +22°C° 0 mm 3 m/S 739 mmHg 54%
    11:00 +25°C° 0 mm 4 m/S 739 mmHg 49%
    12:00 +26°C° 0 mm 4 m/S 739 mmHg 47%
    13:00 +26°C° 0 mm 4 m/S 739 mmHg 44%
    14:00 +27°C° 0 mm 4 m/S 739 mmHg 42%
    15:00 +26°C° 0 mm 3 m/S 738 mmHg 47%
    16:00 +26°C° 0 mm 3 m/S 738 mmHg 52%
    17:00 +25°C° 0 mm 2 m/S 738 mmHg 56%
    18:00 +23°C° 0 mm 2 m/S 738 mmHg 61%
    19:00 +20°C° 0 mm 2 m/S 739 mmHg 66%
    20:00 +18°C° 0 mm 2 m/S 739 mmHg 71%
    21:00 +17°C° 0 mm 2 m/S 739 mmHg 72%
    22:00 +16°C° 0 mm 2 m/S 739 mmHg 73%
    23:00 +16°C° 0 mm 2 m/S 739 mmHg 74%
    Mehr zeigen